Simultaneous Nadir Overpasses (SNOs) Predictions

Prediction of SNOs between AQUA and NPP Satellite Orbit:

Table of predicted SNOs for the next 14.0 days since TLE Epoch: 12/5/2020
Index Date (AQUA) Time (AQUA) Lat,Lon (AQUA) SZA (AQUA ) Date (NPP) Time (NPP) Lat,Lon (NPP) SZA (NPP ) Distance(km) Time Diff (sec)
1 12/05/2020 06:21:37 75.81, -36.97 118.76 12/05/2020 06:21:12 75.81, -37.00 118.79 0.99 25
2 12/05/2020 07:10:41 -76.92, 134.32 62.44 12/05/2020 07:11:33 -76.92, 134.36 62.49 1.26 52
3 12/07/2020 21:51:53 -65.41,-105.85 51.12 12/07/2020 21:50:39 -65.60,-106.82 50.80 49.38 74
4 12/07/2020 22:38:02 76.00, 79.48 118.92 12/07/2020 22:38:01 75.99, 79.39 118.94 2.56 1
5 12/07/2020 23:25:46 -80.33, -90.27 66.46 12/07/2020 23:27:00 -80.11, -89.55 66.63 27.85 74
6 12/10/2020 14:05:18 -75.35, 25.81 60.09 12/10/2020 14:04:24 -75.34, 25.77 60.03 1.42 54
7 12/10/2020 14:54:16 76.71,-162.32 118.47 12/10/2020 14:54:38 76.71,-162.22 118.42 2.69 22
8 12/13/2020 06:21:39 -75.72, 142.75 60.22 12/13/2020 06:21:09 -75.71, 142.70 60.18 1.60 30
9 12/13/2020 07:10:39 76.96, -45.52 118.44 12/13/2020 07:11:25 76.97, -45.41 118.37 2.93 46
10 12/15/2020 22:37:58 -76.12,-100.13 60.44 12/15/2020 22:37:52 -76.12,-100.16 60.43 0.90 6
11 12/15/2020 23:27:06 76.97, 70.40 118.64 12/15/2020 23:28:17 76.96, 70.33 118.59 1.95 71
12 12/18/2020 14:05:15 75.32,-154.26 120.58 12/18/2020 14:04:16 75.32,-154.28 120.64 0.70 59



Historial Predications of SNOs between AQUA and NPP
